When you browse on this site, cookies collect data to enhance your experience and personalize the content and advertising you see.
Visit our Privacy Policy to learn more. By continuing to use the site, you agree to this use of cookies and data.
  • In Portugal
  • List of Countries
  • For 7 days
  • Water Temperature
  • Satellite Maps
  • Weather Map
  • Weather Widgets
  • user-avatar
    Login

    Hourly Weather Balchik

    Today, 16 November, Friday

    Time Temperature Precipitation Wind Pressure Humidity
    00:00 +1°C° 0 mm 6 mps 745 mmHg 78%
    01:00 -1°C° 0 mm 6 mps 745 mmHg 81%
    02:00 -1°C° 0 mm 6 mps 745 mmHg 82%
    03:00 -1°C° 0 mm 6 mps 745 mmHg 82%
    04:00 -1°C° 0 mm 6 mps 745 mmHg 82%
    05:00 -1°C° 0 mm 6 mps 745 mmHg 81%
    06:00 -1°C° 0 mm 7 mps 745 mmHg 81%
    07:00 -1°C° 0 mm 7 mps 746 mmHg 80%
    08:00 -1°C° 0 mm 7 mps 746 mmHg 79%
    09:00 -1°C° 0.1 mm 7 mps 746 mmHg 78%
    10:00 -1°C° 0.1 mm 7 mps 746 mmHg 76%
    11:00 -1°C° 0.1 mm 8 mps 747 mmHg 74%
    12:00 -1°C° 0.1 mm 8 mps 747 mmHg 72%
    13:00 -1°C° 0.1 mm 7 mps 747 mmHg 69%
    14:00 -1°C° 0 mm 7 mps 747 mmHg 74%
    15:00 -2°C° 0.1 mm 7 mps 747 mmHg 75%
    16:00 -2°C° 0.1 mm 7 mps 747 mmHg 77%
    17:00 -3°C° 0.1 mm 7 mps 747 mmHg 79%
    18:00 -3°C° 0.1 mm 7 mps 747 mmHg 80%
    19:00 -3°C° 0.1 mm 6 mps 747 mmHg 81%
    20:00 -3°C° 0.1 mm 6 mps 748 mmHg 82%
    21:00 -3°C° 0.1 mm 6 mps 748 mmHg 82%
    22:00 -3°C° 0.1 mm 6 mps 748 mmHg 82%
    23:00 -3°C° 0.1 mm 6 mps 748 mmHg 83%

    Tomorrow, 17 November, Saturday

    Time Temperature Precipitation Wind Pressure Humidity
    00:00 -3°C° 0 mm 6 mps 748 mmHg 83%
    01:00 -3°C° 0 mm 6 mps 748 mmHg 84%
    02:00 -3°C° 0 mm 6 mps 748 mmHg 85%
    03:00 -2°C° 0.1 mm 5 mps 748 mmHg 85%
    04:00 -2°C° 0.1 mm 5 mps 748 mmHg 86%
    05:00 -2°C° 0.1 mm 5 mps 748 mmHg 87%
    06:00 -2°C° 0.2 mm 5 mps 748 mmHg 87%
    07:00 -3°C° 0.2 mm 6 mps 748 mmHg 88%
    08:00 -3°C° 0.2 mm 6 mps 748 mmHg 89%
    09:00 -2°C° 0.4 mm 6 mps 748 mmHg 89%
    10:00 -2°C° 0.4 mm 6 mps 748 mmHg 89%
    11:00 -2°C° 0.4 mm 6 mps 749 mmHg 89%
    12:00 -1°C° 0.3 mm 6 mps 748 mmHg 89%
    13:00 -1°C° 0.3 mm 6 mps 748 mmHg 89%
    14:00 -1°C° 0.3 mm 7 mps 748 mmHg 89%
    15:00 0°C° 0.1 mm 7 mps 748 mmHg 89%
    16:00 0°C° 0.1 mm 7 mps 748 mmHg 89%
    17:00 0°C° 0.1 mm 7 mps 748 mmHg 89%
    18:00 0°C° 0.2 mm 7 mps 748 mmHg 89%
    19:00 0°C° 0.2 mm 7 mps 748 mmHg 89%
    20:00 0°C° 0.2 mm 7 mps 748 mmHg 88%
    21:00 0°C° 0.2 mm 7 mps 748 mmHg 88%
    22:00 0°C° 0.2 mm 7 mps 748 mmHg 88%
    23:00 +1°C° 0.2 mm 6 mps 748 mmHg 88%

    Day after tomorrow, 18 November, Sunday

    Time Temperature Precipitation Wind Pressure Humidity
    00:00 +1°C° 0.1 mm 6 mps 748 mmHg 88%
    01:00 -1°C° 0.1 mm 6 mps 748 mmHg 87%
    02:00 -1°C° 0.1 mm 6 mps 748 mmHg 87%
    03:00 -1°C° 0 mm 6 mps 748 mmHg 88%
    04:00 -1°C° 0 mm 6 mps 747 mmHg 88%
    05:00 -1°C° 0 mm 5 mps 747 mmHg 88%
    06:00 -1°C° 0 mm 5 mps 747 mmHg 87%
    07:00 -1°C° 0 mm 5 mps 747 mmHg 87%
    08:00 -1°C° 0 mm 5 mps 747 mmHg 86%
    09:00 0°C° 0 mm 4 mps 747 mmHg 83%
    10:00 +1°C° 0 mm 4 mps 747 mmHg 79%
    11:00 +3°C° 0 mm 3 mps 747 mmHg 75%
    12:00 +3°C° 0 mm 3 mps 746 mmHg 73%
    13:00 +4°C° 0 mm 3 mps 746 mmHg 71%
    14:00 +4°C° 0 mm 3 mps 745 mmHg 69%
    15:00 +3°C° 0 mm 3 mps 744 mmHg 71%
    16:00 +3°C° 0 mm 3 mps 744 mmHg 74%
    17:00 +2°C° 0 mm 3 mps 744 mmHg 76%
    18:00 +2°C° 0 mm 3 mps 743 mmHg 76%
    19:00 +2°C° 0 mm 2 mps 743 mmHg 77%
    20:00 +2°C° 0 mm 2 mps 742 mmHg 77%
    21:00 +2°C° 0 mm 2 mps 742 mmHg 77%
    22:00 +2°C° 0 mm 2 mps 742 mmHg 78%
    23:00 +2°C° 0 mm 2 mps 741 mmHg 78%

    19 November, Monday

    Time Temperature Precipitation Wind Pressure Humidity
    00:00 +1°C° 0.1 mm 3 mps 741 mmHg 80%
    01:00 +1°C° 0.1 mm 3 mps 740 mmHg 81%
    02:00 +2°C° 0.1 mm 3 mps 740 mmHg 82%
    03:00 +2°C° 0.6 mm 3 mps 739 mmHg 84%
    04:00 +2°C° 0.6 mm 3 mps 739 mmHg 86%
    05:00 +1°C° 0.6 mm 4 mps 739 mmHg 88%
    06:00 +1°C° 0.6 mm 4 mps 739 mmHg 89%
    07:00 +1°C° 0.6 mm 4 mps 739 mmHg 90%
    08:00 +1°C° 0.6 mm 5 mps 739 mmHg 91%
    09:00 +2°C° 0.2 mm 5 mps 738 mmHg 89%
    10:00 +2°C° 0.2 mm 5 mps 738 mmHg 87%
    11:00 +3°C° 0.2 mm 5 mps 738 mmHg 85%
    12:00 +3°C° 0.2 mm 5 mps 738 mmHg 84%
    13:00 +5°C° 0.2 mm 5 mps 737 mmHg 84%
    14:00 +5°C° 0.2 mm 5 mps 737 mmHg 83%
    15:00 +5°C° 0.4 mm 5 mps 737 mmHg 85%
    16:00 +5°C° 0.4 mm 4 mps 737 mmHg 88%
    17:00 +5°C° 0.4 mm 4 mps 737 mmHg 90%
    18:00 +5°C° 0.5 mm 4 mps 738 mmHg 91%
    19:00 +5°C° 0.5 mm 3 mps 738 mmHg 92%
    20:00 +5°C° 0.5 mm 3 mps 738 mmHg 93%
    21:00 +5°C° 0.2 mm 3 mps 738 mmHg 93%
    22:00 +6°C° 0.2 mm 2 mps 738 mmHg 94%
    23:00 +6°C° 0.2 mm 2 mps 739 mmHg 95%

    20 November, Tuesday

    Time Temperature Precipitation Wind Pressure Humidity
    00:00 +6°C° 0.1 mm 2 mps 739 mmHg 95%
    01:00 +6°C° 0.1 mm 2 mps 739 mmHg 95%
    02:00 +6°C° 0.1 mm 2 mps 739 mmHg 95%
    03:00 +6°C° 0 mm 2 mps 739 mmHg 96%
    04:00 +7°C° 0 mm 2 mps 739 mmHg 96%
    05:00 +7°C° 0 mm 2 mps 739 mmHg 96%
    06:00 +7°C° 0.3 mm 2 mps 739 mmHg 96%
    07:00 +8°C° 0.3 mm 3 mps 739 mmHg 96%
    08:00 +7°C° 0.3 mm 4 mps 739 mmHg 96%
    09:00 +8°C° 0.6 mm 4 mps 738 mmHg 95%
    10:00 +9°C° 0.6 mm 5 mps 738 mmHg 94%
    11:00 +10°C° 0.6 mm 6 mps 738 mmHg 93%
    12:00 +10°C° 0.3 mm 6 mps 738 mmHg 92%
    13:00 +10°C° 0.3 mm 6 mps 737 mmHg 92%
    14:00 +11°C° 0.3 mm 6 mps 736 mmHg 92%
    15:00 +11°C° 0.5 mm 6 mps 736 mmHg 92%
    16:00 +11°C° 0.5 mm 6 mps 735 mmHg 93%
    17:00 +11°C° 0.5 mm 7 mps 735 mmHg 93%
    18:00 +12°C° 1 mm 7 mps 735 mmHg 92%
    19:00 +12°C° 1 mm 7 mps 734 mmHg 90%
    20:00 +12°C° 1 mm 8 mps 734 mmHg 89%
    21:00 +12°C° 0.6 mm 8 mps 734 mmHg 89%
    22:00 +14°C° 0.6 mm 7 mps 734 mmHg 89%
    23:00 +14°C° 0.6 mm 7 mps 734 mmHg 89%

    21 November, Wednesday

    Time Temperature Precipitation Wind Pressure Humidity
    00:00 +14°C° 0.1 mm 7 mps 733 mmHg 87%
    01:00 +13°C° 0.1 mm 8 mps 733 mmHg 86%
    02:00 +13°C° 0.1 mm 8 mps 733 mmHg 84%
    03:00 +14°C° 0.3 mm 7 mps 732 mmHg 85%
    04:00 +14°C° 0.3 mm 7 mps 732 mmHg 86%
    05:00 +14°C° 0.3 mm 6 mps 732 mmHg 86%
    06:00 +14°C° 0.1 mm 7 mps 732 mmHg 86%
    07:00 +14°C° 0.1 mm 7 mps 732 mmHg 85%
    08:00 +13°C° 0.1 mm 8 mps 732 mmHg 84%
    09:00 +15°C° 0 mm 8 mps 732 mmHg 79%
    10:00 +16°C° 0 mm 8 mps 732 mmHg 74%
    11:00 +18°C° 0 mm 8 mps 732 mmHg 69%
    12:00 +18°C° 0 mm 8 mps 731 mmHg 66%
    13:00 +20°C° 0 mm 7 mps 731 mmHg 62%
    14:00 +20°C° 0 mm 6 mps 731 mmHg 58%
    15:00 +19°C° 0 mm 5 mps 731 mmHg 62%
    16:00 +17°C° 0 mm 5 mps 731 mmHg 67%
    17:00 +17°C° 0 mm 4 mps 731 mmHg 71%
    18:00 +15°C° 0.1 mm 4 mps 731 mmHg 73%
    19:00 +14°C° 0.1 mm 4 mps 732 mmHg 75%
    20:00 +14°C° 0.1 mm 4 mps 732 mmHg 77%
    21:00 +13°C° 0 mm 3 mps 732 mmHg 81%
    22:00 +13°C° 0 mm 3 mps 732 mmHg 84%
    23:00 +12°C° 0 mm 3 mps 733 mmHg 88%
    Show more